Location: *
(42.5628°N, 2.3633°E)
Time: 03:26:45
(UTC+00:00)

Cosmos 1892 Rocket - Pass Details

Date: 30 March 2020
Orbit: 605 x 634 km, 82.5° (Epoch: 31 May)

Event Time Altitude Azimuth Distance (km) Brightness Sun altitude
Rises 19:03:12 0° 349° (N) 2,936 7.4 -9.6°
Reaches altitude 10° 19:05:27 10° 348° (NNW) 2,026 6.6 -10.0°
Maximum altitude 19:09:56 73° 264° (W) 666 3.9 -10.8°
Drops below altitude 10° 19:14:23 10° 180° (S) 2,012 6.0 -11.6°
Sets 19:16:37 0° 179° (S) 2,914 6.8 -12.0°
